2018-014G (43186 NORAD) Tracking and Keplerian Element Data

This shows tracking and keplerian element data for the satellite.

Feedback or suggestion? Click here.




ElementValue
Catalog43186
Name2018-014G
Epoch Orbit4239
Epoch Day315.79214068
Epoch Year2018
RAAN222.2895
Inclination97.7164
Eccentricity0.0011751
Argument of Perigee24.3811
Mean Anonmoly335.7964
Mean Motion14.96531475
Decay Rate-2.3E-06
L11 43186U 18014G 18315.79214068 -.00000230 00000-0 -15149-4 0 9992
L22 43186 97.7164 222.2895 0011751 24.3811 335.7964 14.96531475 42392

Live tracking and technical data element details for 2018-014G (NORAD 43186). 2018-014G can be tracked NOW for your location showing map with azimuth and elevation plus other details from your city location.

Track the satellite on the map from your city or location and see movement details for azimuth, elevation, latitude, longitude, range, height, and movement on the map or in text.







IsCatalogInMostPopularTable: catalog: 43186, numindb: 130
Update: records affected: 1



GetName: 43186 2018-014G

Hit Count: updated at: Mon, 12 Nov 2018 17:31:57 GMT